BCS167 EDDK-EDDP

Flight info

Callsign BCS167
Flight time 0h 44m
Altitude 23000
Route PODIP9B PODIP Y867 ROSUX Z858 BERDI T958 KOJEC KOJEC1V
Aircraft B738/M-SDE2E3FGHIRWXY/LB1

Departure

Time 2026-04-20 14:17
Airport Cologne Bonn Airport (EDDK)

Arrival

Time 2026-04-20 15:01
Airport Leipzig/Halle Airport (EDDP)
Time Latitude Longitude Altitude Speed Heading
2026-04-20 13:56 50.87582 7.12761 231 ft 0 kts 227°
2026-04-20 14:05 50.87586 7.12770 231 ft 4 kts 227°
2026-04-20 14:05 50.87604 7.12801 236 ft 3 kts 227°
2026-04-20 14:05 50.87619 7.12826 234 ft 4 kts 219°
2026-04-20 14:05 50.87642 7.12848 232 ft 4 kts 195°
2026-04-20 14:06 50.87665 7.12848 231 ft 4 kts 146°
2026-04-20 14:06 50.87670 7.12843 231 ft 0 kts 137°
2026-04-20 14:09 50.87666 7.12848 231 ft 2 kts 137°
2026-04-20 14:10 50.87642 7.12884 232 ft 7 kts 137°
2026-04-20 14:10 50.87589 7.12960 231 ft 13 kts 137°
2026-04-20 14:10 50.87510 7.13074 231 ft 18 kts 138°
2026-04-20 14:10 50.87408 7.13221 231 ft 22 kts 138°
2026-04-20 14:11 50.87286 7.13397 232 ft 25 kts 137°
2026-04-20 14:11 50.87163 7.13576 237 ft 23 kts 137°
2026-04-20 14:11 50.87046 7.13745 241 ft 22 kts 137°
2026-04-20 14:11 50.86932 7.13910 248 ft 22 kts 137°
2026-04-20 14:12 50.86821 7.14071 254 ft 23 kts 137°
2026-04-20 14:12 50.86683 7.14208 258 ft 23 kts 137°
2026-04-20 14:12 50.86565 7.14381 261 ft 23 kts 137°
2026-04-20 14:12 50.86449 7.14549 268 ft 22 kts 137°
2026-04-20 14:13 50.86336 7.14712 275 ft 22 kts 137°
2026-04-20 14:13 50.86228 7.14869 281 ft 21 kts 137°
2026-04-20 14:13 50.86115 7.15033 286 ft 23 kts 137°
2026-04-20 14:13 50.85999 7.15200 292 ft 22 kts 137°
2026-04-20 14:14 50.85887 7.15363 296 ft 22 kts 137°
2026-04-20 14:14 50.85778 7.15521 297 ft 21 kts 137°
2026-04-20 14:14 50.85673 7.15674 302 ft 20 kts 137°
2026-04-20 14:14 50.85571 7.15820 308 ft 20 kts 137°
2026-04-20 14:15 50.85472 7.15964 307 ft 19 kts 137°
2026-04-20 14:15 50.85376 7.16104 307 ft 18 kts 134°
2026-04-20 14:15 50.85334 7.16286 307 ft 18 kts 87°
2026-04-20 14:15 50.85387 7.16454 309 ft 17 kts 43°
2026-04-20 14:16 50.85493 7.16519 307 ft 17 kts
2026-04-20 14:16 50.85600 7.16454 308 ft 19 kts 319°
2026-04-20 14:16 50.85809 7.16152 308 ft 77 kts 317°
2026-04-20 14:16 50.86387 7.15315 300 ft 147 kts 317°
2026-04-20 14:17 50.87181 7.14195 1067 ft 152 kts 318°
2026-04-20 14:17 50.87975 7.13137 2195 ft 150 kts 322°
2026-04-20 14:17 50.88795 7.12119 3169 ft 149 kts 332°
2026-04-20 14:17 50.89822 7.12022 3835 ft 162 kts 14°
2026-04-20 14:18 50.91015 7.12599 4137 ft 195 kts 14°
2026-04-20 14:18 50.92369 7.13233 4613 ft 207 kts 16°
2026-04-20 14:18 50.93591 7.14503 5202 ft 222 kts 48°
2026-04-20 14:18 50.94467 7.16713 5513 ft 252 kts 60°
2026-04-20 14:19 50.95250 7.19246 6198 ft 263 kts 62°
2026-04-20 14:19 50.96052 7.21885 7037 ft 267 kts 62°
2026-04-20 14:19 50.96874 7.24541 7928 ft 269 kts 62°
2026-04-20 14:19 50.97714 7.27221 8772 ft 273 kts 62°
2026-04-20 14:20 50.98566 7.29928 9632 ft 277 kts 62°
2026-04-20 14:20 50.99430 7.32673 10495 ft 280 kts 62°
2026-04-20 14:20 51.00333 7.35536 10804 ft 302 kts 62°
2026-04-20 14:20 51.01307 7.38656 11022 ft 326 kts 66°
2026-04-20 14:21 51.01818 7.42193 11522 ft 340 kts 88°
2026-04-20 14:21 51.01464 7.45944 12206 ft 348 kts 105°
2026-04-20 14:21 51.00746 7.49646 13016 ft 352 kts 107°
2026-04-20 14:21 50.99983 7.53362 13826 ft 356 kts 107°
2026-04-20 14:22 50.99210 7.57129 14579 ft 360 kts 107°
2026-04-20 14:22 50.98440 7.60946 15292 ft 365 kts 107°
2026-04-20 14:22 50.97670 7.64815 16053 ft 369 kts 107°
2026-04-20 14:22 50.96899 7.68726 16802 ft 374 kts 107°
2026-04-20 14:23 50.96120 7.72684 17541 ft 378 kts 107°
2026-04-20 14:23 50.95332 7.76688 18276 ft 382 kts 106°
2026-04-20 14:23 50.94946 7.80867 18916 ft 385 kts 86°
2026-04-20 14:23 50.95453 7.84960 19727 ft 383 kts 69°
2026-04-20 14:24 50.96666 7.88716 20488 ft 384 kts 61°
2026-04-20 14:24 50.98039 7.92394 21072 ft 389 kts 60°
2026-04-20 14:24 50.99445 7.96078 21758 ft 390 kts 60°
2026-04-20 14:24 51.00850 7.99781 22376 ft 394 kts 61°
2026-04-20 14:25 51.02269 8.03573 22637 ft 400 kts 62°
2026-04-20 14:25 51.03680 8.07388 22916 ft 399 kts 62°
2026-04-20 14:25 51.05053 8.11129 23149 ft 396 kts 62°
2026-04-20 14:25 51.06441 8.14927 23138 ft 396 kts 62°
2026-04-20 14:26 51.07819 8.18703 23147 ft 394 kts 63°
2026-04-20 14:26 51.09197 8.22486 23159 ft 395 kts 63°
2026-04-20 14:26 51.10571 8.26267 23151 ft 395 kts 63°
2026-04-20 14:26 51.11947 8.30066 23150 ft 394 kts 63°
2026-04-20 14:27 51.13311 8.33839 23149 ft 394 kts 63°
2026-04-20 14:27 51.14675 8.37619 23145 ft 390 kts 63°
2026-04-20 14:27 51.16020 8.41346 23141 ft 387 kts 63°
2026-04-20 14:27 51.17364 8.45080 23156 ft 388 kts 63°
2026-04-20 14:28 51.18709 8.48820 23146 ft 389 kts 63°
2026-04-20 14:28 51.20063 8.52490 23150 ft 390 kts 59°
2026-04-20 14:28 51.21710 8.55944 23153 ft 392 kts 53°
2026-04-20 14:28 51.23474 8.59262 23156 ft 393 kts 52°
2026-04-20 14:29 51.25254 8.62578 23147 ft 393 kts 52°
2026-04-20 14:29 51.27028 8.65901 23152 ft 393 kts 52°
2026-04-20 14:29 51.28795 8.69237 23160 ft 393 kts 52°
2026-04-20 14:29 51.30557 8.72586 23152 ft 393 kts 52°
2026-04-20 14:30 51.32312 8.75938 23151 ft 393 kts 52°
2026-04-20 14:30 51.34065 8.79290 23144 ft 392 kts 52°
2026-04-20 14:30 51.35814 8.82642 23156 ft 392 kts 52°
2026-04-20 14:30 51.37528 8.85962 23152 ft 390 kts 55°
2026-04-20 14:31 51.38809 8.89749 23157 ft 386 kts 72°
2026-04-20 14:31 51.39400 8.93917 23149 ft 384 kts 86°
2026-04-20 14:31 51.39303 8.98168 23162 ft 383 kts 97°
2026-04-20 14:31 51.38933 9.02400 23143 ft 384 kts 98°
2026-04-20 14:32 51.38572 9.06644 23134 ft 384 kts 95°
2026-04-20 14:32 51.38539 9.10932 23144 ft 385 kts 88°
2026-04-20 14:32 51.38667 9.15222 23136 ft 386 kts 87°
2026-04-20 14:32 51.38815 9.19461 23132 ft 386 kts 87°
2026-04-20 14:33 51.38964 9.23759 23126 ft 386 kts 87°
2026-04-20 14:33 51.39104 9.28058 23134 ft 386 kts 87°
2026-04-20 14:33 51.39235 9.32356 23128 ft 387 kts 88°
2026-04-20 14:33 51.39360 9.36665 23138 ft 387 kts 88°
2026-04-20 14:34 51.39480 9.40970 23134 ft 387 kts 88°
2026-04-20 14:34 51.39598 9.45275 23133 ft 387 kts 88°
2026-04-20 14:34 51.39714 9.49586 23126 ft 387 kts 88°
2026-04-20 14:34 51.39828 9.53887 23136 ft 387 kts 88°
2026-04-20 14:35 51.39941 9.58190 23129 ft 386 kts 88°
2026-04-20 14:35 51.40052 9.62479 23140 ft 386 kts 88°
2026-04-20 14:35 51.40162 9.66772 23137 ft 385 kts 88°
2026-04-20 14:35 51.40268 9.71002 23149 ft 385 kts 88°
2026-04-20 14:36 51.40375 9.75339 23139 ft 385 kts 88°
2026-04-20 14:36 51.40479 9.79628 23139 ft 385 kts 88°
2026-04-20 14:36 51.40580 9.83854 23152 ft 385 kts 88°
2026-04-20 14:36 51.40681 9.88141 23153 ft 386 kts 88°
2026-04-20 14:37 51.40780 9.92446 23158 ft 387 kts 88°
2026-04-20 14:37 51.40879 9.96763 23145 ft 388 kts 88°
2026-04-20 14:37 51.40977 10.01083 23137 ft 387 kts 88°
2026-04-20 14:37 51.41072 10.05383 23143 ft 386 kts 87°
2026-04-20 14:38 51.41166 10.09680 23152 ft 385 kts 87°
2026-04-20 14:38 51.41257 10.13962 23151 ft 385 kts 87°
2026-04-20 14:38 51.41347 10.18204 23143 ft 385 kts 87°
2026-04-20 14:38 51.41436 10.22490 23135 ft 385 kts 87°
2026-04-20 14:39 51.41523 10.26785 23141 ft 384 kts 87°
2026-04-20 14:39 51.41609 10.31066 23144 ft 384 kts 87°
2026-04-20 14:39 51.41693 10.35350 23149 ft 384 kts 87°
2026-04-20 14:39 51.41776 10.39639 23135 ft 384 kts 87°
2026-04-20 14:40 51.41857 10.43861 23143 ft 385 kts 87°
2026-04-20 14:40 51.41936 10.48154 23145 ft 385 kts 87°
2026-04-20 14:40 51.42047 10.52445 23133 ft 385 kts 84°
2026-04-20 14:40 51.42388 10.56692 23136 ft 384 kts 81°
2026-04-20 14:41 51.42810 10.60925 23137 ft 385 kts 80°
2026-04-20 14:41 51.43251 10.65152 23134 ft 385 kts 79°
2026-04-20 14:41 51.43690 10.69391 23131 ft 385 kts 80°
2026-04-20 14:41 51.44120 10.73630 23120 ft 385 kts 80°
2026-04-20 14:42 51.44540 10.77871 23122 ft 385 kts 80°
2026-04-20 14:42 51.44954 10.82116 23126 ft 385 kts 80°
2026-04-20 14:42 51.45358 10.86306 23122 ft 385 kts 80°
2026-04-20 14:42 51.45764 10.90557 23139 ft 385 kts 80°
2026-04-20 14:43 51.46169 10.94812 23121 ft 387 kts 80°
2026-04-20 14:43 51.46567 10.99027 23104 ft 376 kts 80°
2026-04-20 14:43 51.46951 11.03112 23102 ft 366 kts 80°
2026-04-20 14:43 51.47329 11.07143 23118 ft 365 kts 80°
2026-04-20 14:44 51.47705 11.11169 23126 ft 366 kts 80°
2026-04-20 14:44 51.48084 11.15231 22789 ft 369 kts 80°
2026-04-20 14:44 51.48458 11.19255 22383 ft 363 kts 80°
2026-04-20 14:44 51.48826 11.23245 21965 ft 358 kts 80°
2026-04-20 14:45 51.49188 11.27179 21507 ft 354 kts 80°
2026-04-20 14:45 51.49545 11.31072 21045 ft 351 kts 80°
2026-04-20 14:45 51.49894 11.34886 20596 ft 348 kts 80°
2026-04-20 14:45 51.50244 11.38718 20149 ft 345 kts 80°
2026-04-20 14:46 51.50589 11.42513 19723 ft 342 kts 80°
2026-04-20 14:46 51.50931 11.46290 19289 ft 341 kts 79°
2026-04-20 14:46 51.51269 11.50058 18856 ft 340 kts 80°
2026-04-20 14:46 51.51522 11.53834 18413 ft 340 kts 83°
2026-04-20 14:47 51.51698 11.57622 17920 ft 339 kts 84°
2026-04-20 14:47 51.51868 11.61387 17454 ft 337 kts 84°
2026-04-20 14:47 51.52044 11.65114 17024 ft 334 kts 83°
2026-04-20 14:48 51.52415 11.72497 16158 ft 330 kts 83°
2026-04-20 14:48 51.52603 11.76164 15727 ft 329 kts 83°
2026-04-20 14:48 51.52786 11.79763 15313 ft 327 kts 83°
2026-04-20 14:48 51.52969 11.83393 14891 ft 325 kts 83°
2026-04-20 14:49 51.53148 11.87001 14487 ft 324 kts 83°
2026-04-20 14:49 51.53327 11.90607 14153 ft 321 kts 83°
2026-04-20 14:49 51.53502 11.94162 13907 ft 318 kts 83°
2026-04-20 14:49 51.53617 11.96507 13720 ft 317 kts 83°
2026-04-20 14:50 51.53789 12.00029 13350 ft 314 kts 83°
2026-04-20 14:50 51.53958 12.03527 12919 ft 312 kts 83°
2026-04-20 14:50 51.54124 12.06985 12505 ft 310 kts 83°
2026-04-20 14:50 51.54289 12.10428 12092 ft 308 kts 83°
2026-04-20 14:51 51.54450 12.13807 11687 ft 306 kts 83°
2026-04-20 14:51 51.54612 12.17216 11288 ft 305 kts 84°
2026-04-20 14:51 51.54772 12.20621 10869 ft 305 kts 84°
2026-04-20 14:51 51.54930 12.24020 10543 ft 301 kts 84°
2026-04-20 14:52 51.55082 12.27307 10436 ft 290 kts 84°
2026-04-20 14:52 51.55226 12.30443 10317 ft 280 kts 84°
2026-04-20 14:52 51.55368 12.33564 10184 ft 272 kts 84°
2026-04-20 14:52 51.55502 12.36499 10061 ft 263 kts 84°
2026-04-20 14:53 51.55634 12.39399 9730 ft 258 kts 83°
2026-04-20 14:53 51.55764 12.42271 9218 ft 257 kts 83°
2026-04-20 14:53 51.55892 12.45132 8704 ft 256 kts 83°
2026-04-20 14:53 51.56019 12.47976 8228 ft 254 kts 83°
2026-04-20 14:54 51.56144 12.50801 7758 ft 252 kts 83°
2026-04-20 14:54 51.56267 12.53601 7302 ft 250 kts 83°
2026-04-20 14:54 51.56385 12.56373 6881 ft 247 kts 83°
2026-04-20 14:54 51.56310 12.59134 6370 ft 252 kts 103°
2026-04-20 14:55 51.55420 12.61549 5930 ft 256 kts 133°
2026-04-20 14:55 51.53877 12.62990 5429 ft 263 kts 162°
2026-04-20 14:55 51.52049 12.63296 4963 ft 265 kts 176°
2026-04-20 14:55 51.50196 12.63310 4451 ft 266 kts 177°
2026-04-20 14:56 51.48353 12.63303 4065 ft 261 kts 177°
2026-04-20 14:56 51.46603 12.63062 3801 ft 255 kts 198°
2026-04-20 14:56 51.45224 12.61439 3536 ft 245 kts 238°
2026-04-20 14:56 51.44749 12.58933 3285 ft 230 kts 272°
2026-04-20 14:57 51.44722 12.56400 3079 ft 226 kts 271°
2026-04-20 14:57 51.44624 12.53925 2996 ft 218 kts 269°
2026-04-20 14:57 51.44512 12.51521 2984 ft 213 kts 269°
2026-04-20 14:57 51.44403 12.49241 2991 ft 198 kts 270°
2026-04-20 14:58 51.44312 12.47118 2980 ft 183 kts 271°
2026-04-20 14:58 51.44235 12.45125 2833 ft 176 kts 270°
2026-04-20 14:58 51.44148 12.43188 2599 ft 173 kts 270°
2026-04-20 14:58 51.44056 12.41274 2377 ft 171 kts 271°
2026-04-20 14:59 51.43965 12.39381 2130 ft 169 kts 271°
2026-04-20 14:59 51.43876 12.37524 1903 ft 166 kts 270°
2026-04-20 14:59 51.43788 12.35695 1665 ft 161 kts 271°
2026-04-20 14:59 51.43705 12.33980 1452 ft 151 kts 271°
2026-04-20 15:00 51.43629 12.32362 1243 ft 138 kts 270°
2026-04-20 15:00 51.43556 12.30819 1012 ft 137 kts 270°
2026-04-20 15:00 51.43484 12.29307 816 ft 136 kts 269°
2026-04-20 15:00 51.43415 12.27837 666 ft 133 kts 270°
2026-04-20 15:01 51.43345 12.26339 465 ft 136 kts 269°
2026-04-20 15:01 51.43284 12.24957 448 ft 99 kts 265°
2026-04-20 15:01 51.43246 12.24171 440 ft 42 kts 266°
2026-04-20 15:01 51.43180 12.23761 431 ft 36 kts 240°
2026-04-20 15:02 51.43062 12.23479 436 ft 17 kts 231°
2026-04-20 15:02 51.42956 12.23438 434 ft 17 kts 175°
2026-04-20 15:02 51.42906 12.23581 434 ft 17 kts 85°
2026-04-20 15:02 51.42915 12.23762 434 ft 16 kts 85°
2026-04-20 15:03 51.42923 12.23938 440 ft 16 kts 85°
2026-04-20 15:03 51.42932 12.24124 437 ft 17 kts 86°
2026-04-20 15:03 51.42942 12.24327 441 ft 19 kts 85°
2026-04-20 15:03 51.42952 12.24546 434 ft 20 kts 86°
2026-04-20 15:04 51.42962 12.24760 430 ft 19 kts 85°
2026-04-20 15:04 51.42972 12.24966 446 ft 18 kts 85°
2026-04-20 15:04 51.42981 12.25165 448 ft 16 kts 85°
2026-04-20 15:04 51.42923 12.25258 449 ft 14 kts 188°
2026-04-20 15:05 51.42827 12.25222 454 ft 14 kts 193°
2026-04-20 15:05 51.42735 12.25186 459 ft 13 kts 193°
2026-04-20 15:05 51.42644 12.25151 463 ft 15 kts 193°
2026-04-20 15:05 51.42530 12.25106 470 ft 18 kts 194°
2026-04-20 15:06 51.42396 12.25056 477 ft 22 kts 193°
2026-04-20 15:06 51.42240 12.24996 479 ft 24 kts 193°
2026-04-20 15:06 51.42064 12.24928 484 ft 28 kts 193°
2026-04-20 15:06 51.41870 12.24854 484 ft 29 kts 193°
2026-04-20 15:07 51.41671 12.24777 471 ft 29 kts 194°
2026-04-20 15:07 51.41482 12.24705 475 ft 27 kts 193°
2026-04-20 15:07 51.41304 12.24636 472 ft 25 kts 193°
2026-04-20 15:07 51.41156 12.24581 472 ft 14 kts 189°
2026-04-20 15:08 51.41091 12.24492 470 ft 14 kts 263°
2026-04-20 15:08 51.41084 12.24345 470 ft 13 kts 266°
2026-04-20 15:08 51.41077 12.24192 470 ft 15 kts 266°
2026-04-20 15:08 51.41069 12.24016 470 ft 17 kts 265°
2026-04-20 15:09 51.41060 12.23818 470 ft 19 kts 265°
2026-04-20 15:09 51.41044 12.23670 468 ft 11 kts 230°
2026-04-20 15:09 51.40975 12.23655 467 ft 10 kts 176°
2026-04-20 15:09 51.40906 12.23663 466 ft 10 kts 175°
2026-04-20 15:10 51.40838 12.23672 464 ft 10 kts 175°
2026-04-20 15:10 51.40780 12.23671 463 ft 6 kts 208°
2026-04-20 15:10 51.40767 12.23605 463 ft 6 kts 265°
2026-04-20 15:10 51.40765 12.23563 463 ft 0 kts 265°